COSMOS 2251 DEB, 37094

Orbit data source: Space-Track

COSMOS 2251 DEB, 37094 is space debris in LEO originally from a launch on Wed, 16 Jun 1993 UTC launched from the Plesetsk Missile And Space Complex (PKMTR). The debris from Iridium 33, an American commercial communications satellite, has been tracked extensively since its accidental collision with the defunct Russian satellite Cosmos 2251 in 2009. This event, occurring at high speed in low Earth orbit (LEO), generated thousands of pieces of space debris, significantly increasing the risk of further collisions. The Iridium 33 debris cloud has impacted space traffic management and orbital debris mitigation strategies, making it a subject of ongoing study in space situational awareness.

Loading next visibility...
Identifier
37094, 1993-036BFQ
Orbit
LEO
Country
Flag of CISCIS
Related business
Manufacturer
Unknown
Mission
Spacecraft
Bus & Motor
Unknown
Mass
Unknown
Launch date (UTC)
1993-06-16 (33 years ago)
Launch vehicle
Unknown
Launch site
Plesetsk Missile And Space Complex (PKMTR)
Object type
Payload
Rocket body
Debris
Shape & HBR
Unknown shape, 0.1 m
Radar Cross Section
Small (<0.1 m²)

Expand to show TLE details & history
Last TLE update: 2 weeks ago

TLE from 2 weeks ago
0 COSMOS 2251 DEB
1 37094U 93036BFQ 26049.22443480  .00003954  00000-0  12532-2 0  9998
2 37094  74.1128 357.4013 0084952 304.6936  54.6234 14.38322796854769
Epoch: 2026-02-18T05:23Z
TLE epoch observation values (Epoch: 2026-02-18T05:23:11.166Z)
Latitude
-0.00009°
Longitude
128.4116°
Altitude
731.876 km
Speed
7.508 km/s
True Right ascension
23h 49m 36s
True Declination
0° 00' 00"
Sunlit
Object was in daylight at epoch
Visualization orbit readout
Latitude
Unknown
Longitude
Unknown
Altitude
Unknown
Speed
Unknown
Apparent Right ascension
Unknown
Apparent Declination
Unknown
Sunlit
N/A
Visualization observer readout
Local Sidereal Time
22:59:56
Azimuth
Unknown
Elevation
Unknown
Doppler factor
Unknown
Orbital elements
Apogee altitude
822.314 km
Perigee altitude
701.006 km
Semi-major axis
7,139.797 km
Eccentricity
0.0085
Inclination
74.1128°
RAAN
357.4013°
Arg. of periapsis
304.6936°
True anomaly
55.42202°
Mean anomaly
54.6234°
Eccentric anomaly
55.02222°
Mean motion
3.59761 °/min
Orbital period
100.07 mins
BSTAR
0.0012532
Loading maneuver chart data...
Computing Atmospheric mass density...

Documentation

Showing up to 5 results
|